Regional Weather Roundup
Issued by NWS

Home | Current Version | Previous Version | Graphics & Text | Print | Product List | Glossary On
Versions: 1 2 3 4 5 6 7 8 9 10 11 12 13 14 15 16 17 18 19 20 21 22 23 24 25 26 27 28 29 30 31 32 33 34 35 36 37 38 39 40 41 42 43 44 45 46 47 48 49 50
000
ASUS43 KLOT 232208
RWRIL

ILLINOIS REGIONAL WEATHER ROUNDUP
NATIONAL WEATHER SERVICE CHICAGO/ROMEOVILLE IL
400 PM CST THU NOV 23 2017

NOTE: "FAIR" INDICATES FEW OR NO CLOUDS BELOW 12,000 FEET WITH NO
SIGNIFICANT WEATHER AND/OR OBSTRUCTIONS TO VISIBILITY.

* THESE STATIONS ARE NOT UNDER NWS QUALITY CONTROL. THEY ALSO MAY NOT
  REPORT WEATHER SUCH AS PRECIPITATION OR FOG.

ILZ001-002-007-009-015-016-024-232300-
NORTHWEST ILLINOIS

CITY           SKY/WX    TMP DP  RH WIND       PRES   REMARKS
MOLINE         CLEAR     48  26  42 W6        29.92R
STERLING*      CLEAR     45  27  49 SW5       29.93R
SAVANNA*       CLEAR     46  26  46 CALM      29.91F
$$

ILZ003-004-008-010-011-017-018-232300-
NORTH CENTRAL ILLINOIS

CITY           SKY/WX    TMP DP  RH WIND       PRES   REMARKS
ROCKFORD       CLEAR     45  25  45 W5        29.93S
FREEPORT*      CLEAR     42  26  51 SW6       29.92S
ROCHELLE*      CLEAR     42  29  61 W7        29.93R
DE KALB*       CLEAR     42  27  55 W7        29.92S
PERU*          CLEAR     44  27  50 W5        29.93R
$$

ILZ005-006-012>014-019>023-232300-
NORTHEAST ILLINOIS

CITY           SKY/WX    TMP DP  RH WIND       PRES   REMARKS
CHICAGO-OHARE  CLEAR     44  25  47 W8        29.91S
CHICAGO-MIDWAY CLEAR     46  26  45 SW8       29.91F
AURORA         CLEAR     44  28  53 SW6       29.92S
LANSING*       CLEAR     45  30  56 SW7       29.92F
JOLIET*        CLEAR     47  28  46 SW3       29.92F
WAUKEGAN       CLEAR     43  25  49 CALM      29.90R
DUPAGE AIRPORT CLEAR     42  27  55 SW7       29.91S
KANKAKEE*      CLEAR     46  28  49 SW7       29.94S
WHEELING       CLEAR     45  26  47 SW6       29.92S
MORRIS*        CLEAR     45  27  50 W5        29.92S
ROMEOVILLE*    CLEAR     44  28  53 SW7       29.92S
NORTHERLY ISL    N/A     46  23  40 SW9         N/A
$$

LMZ740>746-232300-
SOUTHERN LAKE MICHIGAN

STATION/POSITION SKY/WX   TEMP    WIND        PRES    VSBY  WAVE
                          AIR SEA DIR/SP/G                  HT/PER
                          (F)     (DEG/KT/KT) (MB)    (MI)  (FT/S)
SOUTHERN BUOY              42 47  250/ 10/ 12 1013.4F         3/ 5
HARRISON CRIB              47     230/  7/  8   N/A
BURNHAM HARBOR             46     220/  5/ 11   N/A
CALUMET HARBOR             47     220/  7/ 12 1012.4S
BURNS HARBOR               46     220/  8/ 12 1013.9S
MICHIGAN CITY              45     200/ 11/ 12   N/A
$$

ILZ025>027-034>036-040-047-049-050-058-095>099-232300-
WEST-CENTRAL ILLINOIS

CITY           SKY/WX    TMP DP  RH WIND       PRES   REMARKS
QUINCY         CLEAR     51  30  44 W6        29.94R
GALESBURG*     CLEAR     47  30  52 W7        29.95R
MACOMB*        CLEAR     49  30  48 W7        29.96R
JACKSONVILLE*  CLEAR     50  29  44 W6        29.94S
PITTSFIELD*    CLEAR     53  30  42 W6        29.96R
$$

ILZ028>032-037-038-041>044-048-051>054-059>061-232300-
CENTRAL ILLINOIS

CITY           SKY/WX    TMP DP  RH WIND       PRES   REMARKS
PONTIAC        CLEAR     47  29  49 SW8       29.94R
BLOOMINGTON    CLEAR     47  28  47 SW9       29.93S
DECATUR        CLEAR     49  28  44 SW8       29.94F
PEORIA         CLEAR     48  27  44 W6        29.94R
LACON*         CLEAR     47  26  43 SW3       29.93R
LINCOLN*       CLEAR     50  30  46 W5        29.94S
SPRINGFIELD    CLEAR     51  29  42 W7        29.95S
TAYLORVILLE    CLEAR     49  28  44 SW8       29.95S
$$

ILZ033-039-045-046-055>057-062-063-232300-
EAST-CENTRAL ILLINOIS

CITY           SKY/WX    TMP DP  RH WIND       PRES   REMARKS
CHAMPAIGN      CLEAR     47  29  49 S12       29.94F
DANVILLE*      CLEAR     44  27  51 S12       29.93F
RANTOUL*       CLEAR     48  32  54 S8        29.94F
MATTOON        CLEAR     47  27  45 S8        29.95F
PARIS*         CLEAR     44  29  55 S10       29.97F
$$

ILZ079-100>102-232300-
SOUTHWEST ILLINOIS

CITY           SKY/WX    TMP DP  RH WIND       PRES   REMARKS
ALTON          CLEAR     54  30  40 S5        29.95F
BELLEVILLE     CLEAR     55  28  35 S5        29.94F
CAHOKIA*       CLEAR     59  23  25 SW3       29.94F
SPARTA*        CLEAR     53  27  37 S9        29.97F
$$

ILZ064>066-069>071-074>076-080>082-084>086-088>090-092>094-232300-
SOUTH-CENTRAL ILLINOIS

CITY           SKY/WX    TMP DP  RH WIND       PRES   REMARKS
CARBONDALE     CLEAR     50  24  36 SW13      29.99F
CAIRO*         CLEAR     50  26  39 S6        30.03R
EFFINGHAM*     CLEAR     50  27  41 S7        29.98S
MARION         CLEAR     52  25  35 S12       30.00F
MT. VERNON     CLEAR     50  26  39 S7        29.99S
CENTRALIA*     CLEAR     52  29  42 S9        29.97S
SALEM*         CLEAR     52  26  36 S8        29.98R
METROPOLIS*    CLEAR     51  23  32 S5        30.03S
$$

ILZ067-068-072-073-078-083-087-091-232300-
SOUTHEAST ILLINOIS

CITY           SKY/WX    TMP DP  RH WIND       PRES   REMARKS
LAWRENCEVILLE  CLEAR     47  27  45 S10       30.01S
FLORA*         CLEAR     50  27  41 S8        29.99S
FAIRFIELD*     CLEAR     50  25  38 CALM      29.99S
HARRISBURG*    CLEAR     51  26  38 S9        30.01S
ROBINSON*      CLEAR     45  26  48 S8        30.01S
CARMI*         CLEAR     48  28  45 SE7       30.01S
$$

ABBREVIATIONS USED IN REMARKS
   TC - TEMPERATURE IN CELSIUS
  WCI - WIND CHILL INDEX
   HX - HEAT INDEX
  VSB - VISIBILITY
$$




USA.gov is the U.S. government's official web portal to all federal, state and local government web resources and services.